Location: Jackson
(42.2460°N, 84.4010°W)
Time: 03:17:51
(UTC-05:00)

Transit 2A Rocket - Visible Passes

Search period start: 15 February 2026 00:00
Search period end: 25 February 2026 00:00
Orbit: 582 x 901 km, 66.7° (Epoch: 13 February)

Date Brightness Start Highest point End Pass type
(mag) Time Alt. Az. Time Alt. Az. Time Alt. Az.
15 Feb 7.7 19:21:39 10° WNW 19:24:59 15° NW 19:28:17 10° N visible
16 Feb 7.4 18:34:12 10° W 18:38:47 22° NW 18:43:19 10° N visible
18 Feb 7.7 18:47:51 10° WNW 18:50:40 13° NNW 18:53:27 10° N visible
